Regional Weather Roundup
Issued by NWS

Home | Current Version | Previous Version | Text Only | Print | Product List | Glossary Off
Versions: 1 2 3 4 5 6 7 8 9 10 11 12 13 14 15 16 17 18 19 20 21 22 23 24 25 26 27 28 29 30 31 32 33 34 35 36 37 38 39 40 41 42 43 44 45 46 47 48 49 50

000
ASUS43 KIND 131159
RWRIN

WEATHER ROUNDUP FOR INDIANA
NATIONAL WEATHER SERVICE INDIANAPOLIS IN
700 AM EST WED DEC 13 2017

NOTE: "FAIR" INDICATES FEW OR NO CLOUDS BELOW 12,000 FEET WITH NO
SIGNIFICANT WEATHER AND/OR OBSTRUCTIONS TO VISIBILITY.

* - STATION DOES NOT REPORT WEATHER SUCH AS PRECIPITATION OR FOG.

+ - STATION NOT QUALITY CONTROLLED BY THE NATIONAL WEATHER SERVICE.
    USE DATA WITH CAUTION...ESPECIALLY DEWPOINT AND RELATIVE
    HUMIDITY OBSERVATIONS.

INZ001>003-010>013-019-020-131300-
NORTHWEST INDIANA

CITY           SKY/WX    TMP DP  RH WIND       PRES   REMARKS
GARY /AIRPORT/ CLOUDY    27   9  46 S9        29.74F WCI  17
MONTICELLO +   CLOUDY    23   8  54 S7        29.80F WCI  14
6HR MIN TEMP:  17; 6HR MAX TEMP:  23;


$$

LMZ046-743>745-131300-
SOUTHERN LAKE MICHIGAN

STATION/POSITION TIME  TEMP    WIND        PRES    WAVE
                       AIR SEA DIR/SP/G            HT
                 (UTC) (F)     (DEG/KT/KT) (MB)    (FT)
BURNS HARBOR     1140   23     170/  9/ 15 1008.1F
MICHIGAN CITY    1130   21     160/ 10/ 12   N/A

$$

INZ004-005-014>016-021>024-131300-
NORTH CENTRAL INDIANA

CITY           SKY/WX    TMP DP  RH WIND       PRES   REMARKS
ELKHART        CLOUDY    19   9  63 S8        29.78  WCI   9
GOSHEN         CLOUDY    19   9  65 S9        29.79F WCI   8
6HR MIN TEMP:  14; 6HR MAX TEMP:  19;

PERU/GRISSOM   CLOUDY    22  10  59 S9        29.81F WCI  11
6HR MIN TEMP:  15; 6HR MAX TEMP:  22;

SOUTH BEND     CLOUDY    19  10  68 S9        29.78F WCI   8
6HR MIN TEMP:  16; 6HR MAX TEMP:  19;

WARSAW +       CLOUDY    19  10  68 S6        29.80F WCI  11

$$

INZ006>009-017-018-025>027-131300-
NORTHEAST INDIANA

CITY           SKY/WX    TMP DP  RH WIND       PRES   REMARKS
AUBURN +       CLOUDY    19  10  68 S5        29.82F WCI  13
FORT WAYNE     CLOUDY    20  11  68 S12       29.83F WCI   8
6HR MIN TEMP:  12; 6HR MAX TEMP:  20;

KENDALLVILLE + CLOUDY    17   9  72 S8        29.79F WCI   6

$$

INZ028-029-035-036-043>045-051>053-131300-
WEST CENTRAL INDIANA

CITY           SKY/WX    TMP DP  RH WIND       PRES   REMARKS
CRAWFORDSVL +  CLOUDY    21   9  60 S10         N/A  WCI  10
6HR MIN TEMP:  16; 6HR MAX TEMP:  22;

GREENCASTLE +  CLOUDY    21  10  63 S5        29.84F WCI  15
LAFAYETTE      CLOUDY    23  10  57 S5        29.81F WCI  17
6HR MIN TEMP:  18; 6HR MAX TEMP:  23;

TERRE HAUTE    CLOUDY    22   9  57 S9        29.85F WCI  12
6HR MIN TEMP:  21; 6HR MAX TEMP:  24;


$$

INZ030>032-037>040-046>048-054>057-064-065-131300-
CENTRAL INDIANA

CITY           SKY/WX    TMP DP  RH WIND       PRES   REMARKS
COLUMBUS       CLOUDY    19   9  63 S9        29.92  WCI   9
FRANKFORT +    CLOUDY    26  11  53 S9        29.82F WCI  16
6HR MIN TEMP:  18; 6HR MAX TEMP:  26;

INDIANAPOLIS   CLOUDY    22   8  55 S10       29.85F WCI  11
6HR MIN TEMP:  16; 6HR MAX TEMP:  22;

-EAGLE CREEK   CLOUDY    22   8  55 S7        29.84F WCI  13
6HR MIN TEMP:  18; 6HR MAX TEMP:  22;

KOKOMO +       CLOUDY    21  11  65 S12       29.83F WCI   9
6HR MIN TEMP:  16; 6HR MAX TEMP:  21;

MT COMFORT *+  CLOUDY    21  12  68 S9        29.86F WCI  11
SHELBYVILLE    CLOUDY    22   9  57 S10       29.88F WCI  11
6HR MIN TEMP:  15; 6HR MAX TEMP:  22;


$$

INZ033-034-041-042-049-050-058-059-131300-
EAST CENTRAL INDIANA

CITY           SKY/WX    TMP DP  RH WIND       PRES   REMARKS
MUNCIE         CLOUDY    21   8  57 S9        29.84F WCI  11
6HR MIN TEMP:  17; 6HR MAX TEMP:  21;

RICHMOND +     CLOUDY    18  10  73 SW9       29.88F WCI   6

$$

INZ060-061-067>069-081>083-085>088-131300-
SOUTHWEST INDIANA

CITY           SKY/WX    TMP DP  RH WIND       PRES   REMARKS
EVANSVILLE     FLURRIES  26  14  60 S9        29.95F WCI  17
6HR MIN TEMP:  20; 6HR MAX TEMP:  26; 6HR PCP: TRACE;

HUNTINGBURG +  CLOUDY    22  14  71 SE7       29.94F WCI  13
6HR MIN TEMP:  18; 6HR MAX TEMP:  22;


$$

INZ062-063-066-070>080-084-089>092-131300-
SOUTH CENTRAL AND SOUTHEAST INDIANA

CITY           SKY/WX    TMP DP  RH WIND       PRES   REMARKS
BLOOMINGTON    CLOUDY    21   9  59 S9        29.86F WCI  11
6HR MIN TEMP:  16; 6HR MAX TEMP:  22;

MADISON *+     CLOUDY    23  10  58 S5        29.95F WCI  17
SEYMOUR +      PTCLDY    21  10  63 S6        29.93F WCI  14

$$





USA.gov is the U.S. government's official web portal to all federal, state and local government web resources and services.